Theta_e
341 339 341 346 347 342 336 333 332 333 334 334 336 336 337 336 333 331 330 331 330 330 330 329 330 330 329 330 329 328 327 326 325 325 325 325 324 323 323 322 321 320 320 321 325 327 328 334 337 337 338 338 338 337 338 336 335 335 331 326 321 318 315 313 313 312 312 313 317 321 326 325 318 314 311 310 309 313 319 327 330 330 331 331 331
343 342 343 347 346 338 333 334 335 335 335 335 336 336 336 335 332 330 330 330 330 330 330 330 330 330 330 330 329 328 326 325 325 324 324 324 325 324 324 323 323 321 320 323 327 328 328 333 336 337 338 338 338 336 336 335 333 329 323 319 316 314 312 310 312 313 315 320 324 325 324 322 325 320 311 311 310 314 321 328 331 328 329 331 331
344 344 345 347 343 336 332 333 334 335 335 336 336 336 335 333 331 330 330 330 330 330 330 330 330 331 330 329 328 326 325 324 324 323 323 323 326 326 324 324 324 323 323 326 329 328 329 333 335 337 338 338 337 335 335 334 329 322 317 317 315 313 311 312 317 322 325 328 331 329 325 326 332 326 313 312 311 314 322 328 330 324 324 326 326
346 345 348 346 338 334 332 332 332 332 333 334 334 334 334 332 331 330 330 330 330 330 331 331 331 331 330 329 328 326 324 323 322 322 322 323 326 327 327 327 326 325 325 328 328 328 330 333 336 337 338 338 336 336 335 329 321 318 318 317 316 314 313 317 324 328 330 331 333 331 329 330 334 327 313 314 314 313 320 326 327 323 321 320 318
346 345 348 344 335 332 331 331 331 331 332 332 333 333 333 332 331 330 330 330 330 330 331 331 331 330 329 329 327 325 324 322 322 321 323 327 328 328 329 330 329 326 326 327 327 328 331 332 336 338 338 338 336 336 331 322 318 318 318 318 318 315 315 320 325 328 330 331 332 332 331 332 333 327 313 314 319 314 317 320 320 318 317 317 317
346 345 347 342 333 332 331 330 330 331 331 331 332 332 332 332 331 330 331 331 331 331 331 331 331 330 329 328 326 324 323 321 321 323 328 331 332 331 330 332 332 330 327 327 329 331 332 333 337 339 339 337 337 334 324 318 318 319 319 320 319 317 320 325 328 329 330 330 331 332 333 332 330 329 318 314 320 319 318 315 314 314 316 319 319
346 344 345 341 334 332 331 331 329 330 331 332 333 333 332 332 332 331 331 332 331 332 332 331 331 330 329 327 325 324 323 320 319 323 329 332 334 333 333 333 333 333 331 330 333 335 335 335 337 339 339 338 338 329 319 318 319 320 320 320 319 319 322 327 329 329 330 331 332 333 334 333 329 329 324 315 316 319 319 315 315 318 319 321 323
345 344 345 341 334 332 332 331 331 332 333 334 335 335 334 334 333 333 333 332 332 332 332 331 330 329 327 326 325 324 323 319 316 319 323 329 333 333 332 332 332 333 333 333 334 335 335 337 339 339 338 338 335 323 318 320 320 322 322 320 319 322 326 327 328 327 328 329 332 334 333 333 330 329 328 320 314 315 316 315 314 318 319 319 324
347 347 347 343 336 334 332 332 333 335 335 336 336 336 335 335 334 334 333 333 332 332 331 330 329 328 326 325 325 325 324 320 315 314 317 323 327 327 330 332 331 332 333 334 334 335 337 340 340 339 338 336 327 318 320 322 322 324 323 321 320 325 329 330 330 329 328 328 331 333 332 333 329 329 330 324 317 314 313 313 313 314 317 318 321
349 348 349 345 338 335 333 333 335 335 337 336 336 336 335 335 333 333 333 332 332 331 330 329 327 326 324 324 325 325 325 323 318 314 312 317 323 327 331 332 333 333 333 335 336 337 339 341 340 339 336 328 319 318 322 323 324 325 323 323 323 326 330 331 332 332 332 331 331 329 329 331 329 329 330 326 320 315 312 312 312 314 319 320 320
348 348 349 344 338 336 333 333 334 335 335 336 336 335 335 333 332 332 332 331 330 328 327 326 325 324 323 324 325 326 326 323 321 316 312 315 324 331 333 334 335 335 336 337 339 339 341 341 339 337 331 321 316 320 323 324 326 326 324 324 325 328 329 331 333 333 334 333 331 328 327 328 329 330 331 329 323 318 315 312 312 315 318 320 318
347 349 348 341 336 335 333 332 331 332 333 334 334 333 333 332 332 331 330 329 327 325 325 325 324 324 324 325 326 327 325 322 321 318 314 314 323 332 334 336 336 335 337 339 340 340 340 340 338 334 325 317 317 321 325 328 328 327 325 325 325 326 326 329 333 334 334 334 332 331 329 329 330 331 332 331 325 320 316 312 312 314 315 316 315
347 349 346 338 334 333 331 331 331 331 331 332 332 332 332 332 331 329 328 327 324 324 324 323 322 322 323 324 326 328 326 323 320 319 317 314 318 328 333 335 335 335 336 339 340 340 339 339 335 329 323 318 319 322 326 329 330 327 326 326 326 326 326 330 335 335 334 334 332 331 332 332 331 332 332 328 322 320 317 313 312 312 313 314 313
347 348 343 336 333 332 331 332 331 332 331 332 333 333 334 333 331 328 326 325 324 324 323 322 322 323 323 323 325 328 328 326 322 319 318 316 316 324 332 333 334 335 336 338 339 339 338 337 333 327 323 321 320 321 325 328 328 327 326 327 326 326 328 331 336 336 335 335 333 332 334 334 331 328 325 322 320 321 317 313 311 310 312 312 313
346 344 341 336 334 332 331 331 330 331 331 333 333 333 333 332 330 327 325 324 323 323 324 323 323 324 324 323 325 329 330 330 327 321 318 317 316 320 329 332 333 334 336 338 338 338 337 337 334 329 326 323 321 321 323 326 327 327 326 327 327 327 328 330 336 337 336 335 334 333 334 333 330 324 320 318 320 319 316 313 311 310 311 311 311
345 342 340 337 335 332 330 330 330 331 332 331 332 333 332 330 328 325 324 324 324 324 324 323 323 324 324 323 325 329 331 332 331 324 318 317 316 317 324 330 332 332 335 336 337 338 337 337 335 332 329 325 323 321 321 323 325 326 325 326 327 327 327 329 335 338 336 336 335 334 334 334 330 324 319 317 317 317 314 311 311 311 310 309 309
343 341 341 338 335 332 331 331 330 330 331 330 331 331 329 328 326 325 325 324 324 325 324 324 323 322 322 323 326 329 331 332 332 327 319 317 316 316 319 326 330 330 333 335 335 336 336 336 336 334 332 329 325 322 321 321 323 325 325 326 326 327 328 327 333 338 336 336 335 334 335 334 329 322 320 317 316 315 313 311 311 310 309 308 308
341 339 340 338 335 332 331 331 331 331 330 330 330 329 328 327 327 326 326 326 326 326 325 325 324 323 321 321 325 330 331 333 333 331 324 317 317 316 316 320 324 324 328 333 334 334 335 334 334 335 334 332 329 325 322 320 321 323 324 326 326 327 327 327 333 336 336 336 336 335 334 332 326 322 321 319 315 313 311 311 310 309 308 308 307
344 342 340 340 336 332 333 332 333 334 332 332 331 329 327 327 327 328 327 327 327 326 326 327 326 325 322 319 324 329 331 333 334 333 329 322 318 317 314 315 317 317 321 328 331 331 331 332 332 334 334 333 333 330 326 322 320 321 323 325 326 327 327 330 335 336 334 336 337 335 332 328 325 324 323 320 315 311 311 310 310 309 308 307 308
347 346 345 344 339 334 335 333 335 337 335 336 335 330 328 327 327 327 328 327 328 327 327 327 327 329 326 323 326 331 334 334 334 335 334 330 325 320 316 314 314 314 316 319 323 324 325 326 329 331 332 333 334 333 330 325 322 321 321 323 325 326 327 330 335 335 335 336 336 336 331 327 327 325 324 322 316 312 311 310 309 309 308 308 307
347 347 347 346 341 337 335 334 338 339 338 340 338 334 329 328 328 328 328 328 327 328 328 328 329 331 329 329 332 335 337 336 336 336 335 335 332 328 324 320 317 315 315 316 317 318 318 319 322 325 328 331 332 333 331 328 326 324 321 322 324 325 328 331 333 334 335 336 337 336 332 329 328 325 325 324 321 316 313 310 310 309 309 308 308
347 347 347 345 344 342 337 337 340 340 341 343 341 339 333 329 330 329 329 329 328 328 329 329 331 333 332 334 336 336 337 337 337 337 337 336 335 334 332 329 325 321 318 317 316 316 316 316 317 318 320 324 328 330 331 329 327 326 323 322 322 325 329 331 332 333 335 336 336 335 332 330 329 327 325 325 323 321 317 313 311 310 309 308 308
347 348 345 343 344 345 341 340 343 341 342 342 341 342 337 333 334 332 330 330 329 329 331 334 335 335 336 337 337 336 337 337 336 337 337 335 335 336 335 333 332 328 322 319 317 317 316 314 314 315 316 319 323 326 327 327 327 327 326 323 321 325 330 331 332 333 335 336 336 335 333 331 331 329 327 325 324 323 322 317 312 310 310 310 309
347 347 344 343 345 344 343 342 342 341 339 339 339 341 339 337 339 338 336 334 333 333 335 337 337 337 338 337 336 336 336 336 336 337 336 335 336 337 335 334 334 333 329 325 326 328 324 317 313 313 317 319 320 323 325 327 331 331 329 328 322 323 330 332 331 333 334 335 335 335 334 332 332 331 330 328 326 324 324 322 317 313 310 309 309
348 346 342 345 346 343 343 344 342 339 337 337 337 340 339 339 341 341 340 339 337 337 337 338 339 339 339 339 338 337 336 336 337 337 336 336 337 336 336 337 336 336 334 332 334 336 333 328 319 316 322 323 322 326 330 330 332 332 331 331 325 325 330 332 332 332 334 334 335 336 335 333 333 333 332 331 328 326 325 325 323 317 313 310 309
348 346 342 346 345 341 342 344 343 338 337 338 336 338 339 338 340 342 341 340 340 340 340 340 340 341 339 340 341 339 337 337 338 338 338 338 338 337 337 337 337 337 336 335 336 335 335 334 328 325 330 331 328 330 332 331 331 332 331 331 329 329 332 332 332 333 334 335 334 335 334 333 333 334 333 332 331 329 327 327 326 324 319 315 311
349 347 345 346 342 337 339 341 340 335 337 340 338 338 338 338 340 342 342 341 341 341 342 341 341 340 338 339 340 340 339 339 339 340 339 339 339 339 338 337 337 337 336 335 336 336 336 334 332 332 334 334 332 332 332 331 331 332 331 331 330 331 332 332 333 333 334 334 334 335 334 333 333 334 334 333 332 331 330 329 327 327 325 321 317
348 346 346 347 341 338 339 339 339 335 336 341 340 338 337 339 341 341 342 342 341 341 342 342 342 340 339 338 338 339 340 339 340 340 340 339 339 338 338 338 338 338 337 336 336 337 337 334 333 333 334 334 333 331 331 332 331 331 330 330 330 330 330 332 333 334 334 334 335 335 335 334 333 333 334 333 333 332 331 330 329 328 327 325 322
347 346 346 346 344 342 343 341 341 338 336 338 340 340 339 339 341 341 341 342 341 342 343 343 342 342 340 339 338 339 340 340 341 340 340 340 339 338 336 336 337 338 337 337 336 336 336 336 334 334 334 333 333 331 331 331 330 330 330 328 328 328 330 331 332 334 334 334 334 334 335 334 332 333 333 333 333 332 332 331 330 329 328 328 327
347 346 346 346 346 345 345 344 343 342 337 335 338 340 338 336 338 339 339 340 341 341 342 343 343 343 342 342 340 339 340 340 341 340 339 339 339 339 337 337 337 336 336 335 335 336 336 336 336 335 335 334 332 331 330 330 330 330 330 329 328 327 328 330 331 333 333 334 334 334 335 335 332 332 333 333 333 333 333 332 331 330 328 328 329
348 347 347 346 346 346 345 346 345 345 340 335 335 337 336 336 337 338 338 339 339 338 340 341 342 343 343 343 341 341 340 339 339 338 337 336 338 338 338 339 338 337 337 336 336 337 337 336 335 335 334 333 333 331 330 330 330 329 329 329 329 328 327 328 329 332 334 334 334 334 335 335 334 332 332 333 333 333 333 332 332 331 330 328 329
347 345 347 346 347 346 345 346 347 347 344 340 338 336 336 336 337 339 339 339 337 336 337 338 340 341 341 342 341 341 341 339 338 338 337 336 337 338 338 338 337 337 337 337 336 336 337 337 336 336 335 333 332 332 332 331 330 330 329 329 330 329 328 328 329 331 333 333 333 334 335 334 334 333 331 332 332 333 333 333 332 332 332 330 328
346 345 347 346 347 347 346 347 347 347 346 344 343 340 337 337 338 339 338 338 338 338 338 339 341 340 340 340 340 341 341 340 338 338 338 337 337 338 338 337 336 336 336 336 335 335 336 336 336 336 335 333 332 332 332 332 332 331 329 328 329 330 329 329 329 330 332 333 332 334 335 334 334 334 333 332 332 333 333 333 333 332 332 331 329
346 345 345 345 346 347 346 346 347 346 346 346 344 342 338 340 341 339 337 338 338 338 338 340 341 340 340 340 340 341 342 342 340 339 339 338 338 339 338 337 337 336 336 336 335 335 335 336 336 335 334 333 332 332 332 332 332 332 331 329 329 330 330 329 329 330 331 332 332 332 333 334 334 334 334 332 331 332 333 333 333 333 332 332 331
345 345 345 345 346 347 346 346 346 346 346 346 346 342 340 340 341 339 338 339 338 337 338 338 339 340 341 341 341 341 342 342 342 341 340 340 339 339 338 338 338 337 337 337 337 335 334 335 336 335 334 333 333 332 332 332 332 332 332 331 329 329 329 329 329 330 331 331 331 332 332 333 334 335 334 334 332 332 332 333 333 333 332 332 332
345 345 344 345 346 346 345 345 346 346 346 346 346 344 340 340 340 338 338 339 337 337 337 338 339 340 340 341 341 342 342 342 342 341 341 341 340 339 338 337 337 337 337 337 337 335 334 334 335 335 334 334 333 333 333 333 333 332 331 331 330 329 329 330 330 330 331 331 331 331 332 333 335 335 335 334 333 332 332 333 333 333 333 333 333
344 344 344 344 345 344 343 345 345 346 345 344 345 343 340 338 339 338 337 338 338 338 339 339 339 338 339 340 340 340 340 341 342 341 341 340 340 339 339 338 338 338 338 338 337 336 335 334 334 335 334 333 333 334 335 334 333 333 332 331 330 330 329 329 329 329 330 331 331 330 331 332 334 335 335 335 334 333 332 332 333 332 333 333 333
343 343 344 344 343 341 341 344 345 344 344 344 344 341 337 336 337 335 334 333 334 337 338 338 338 338 338 338 339 339 339 340 340 341 341 340 340 339 340 338 338 338 338 338 338 337 336 335 335 335 335 334 333 334 335 334 333 333 332 331 331 331 330 330 329 328 329 331 331 331 331 331 332 334 334 334 335 335 333 332 333 332 333 333 333
343 344 345 344 343 343 342 343 343 342 342 341 342 340 336 335 335 334 335 335 335 336 337 339 340 340 341 340 341 340 341 341 341 340 341 340 340 339 339 339 338 338 338 337 338 338 336 336 336 335 334 333 333 335 335 334 333 333 333 332 331 331 331 331 330 329 329 329 330 331 331 331 332 333 333 334 335 336 334 332 332 332 332 332 333
344 344 344 343 343 342 341 341 342 341 340 340 340 339 338 338 337 338 339 340 340 339 339 341 342 343 343 342 341 341 341 341 341 341 341 341 341 339 339 339 339 339 338 337 338 337 336 336 336 335 334 332 334 336 336 335 334 334 333 333 332 331 331 331 332 331 329 329 330 330 330 331 332 331 332 334 334 335 334 333 332 331 331 331 333
344 343 343 342 342 341 340 340 340 341 340 341 342 341 341 341 340 341 341 340 340 339 339 341 341 341 340 338 338 337 337 338 340 340 341 340 340 340 339 339 339 338 338 338 338 338 337 337 336 335 334 334 336 337 336 335 335 334 334 335 334 333 332 331 332 332 330 329 330 332 331 330 332 331 332 334 334 334 335 334 332 331 330 330 332
344 342 342 341 342 341 340 341 342 343 343 344 344 342 342 341 340 342 341 341 340 339 341 339 336 333 328 326 326 324 326 329 333 336 338 339 340 340 339 338 339 338 337 338 338 337 337 336 336 336 335 336 337 337 336 335 334 334 335 335 334 333 333 332 331 332 331 330 329 331 332 331 332 332 332 333 335 335 335 334 333 331 330 330 331
342 342 342 341 341 341 341 342 342 342 342 342 343 342 342 340 339 341 339 338 337 334 334 330 328 327 322 318 317 315 316 317 321 327 332 335 337 338 338 337 337 336 337 337 337 337 337 336 337 337 336 337 337 337 337 336 335 334 335 335 334 333 333 332 332 332 332 331 328 328 331 333 332 332 332 332 333 334 334 335 334 332 331 330 331
340 341 341 339 340 340 340 340 340 341 339 340 343 340 336 332 329 329 327 325 325 324 327 328 331 332 326 320 317 314 312 310 312 316 321 328 331 332 334 335 335 335 335 335 335 336 336 336 337 337 337 337 337 337 337 337 336 335 335 335 335 335 334 333 333 333 332 331 330 330 331 332 331 331 331 331 331 332 332 335 336 333 331 330 331
339 339 339 338 338 338 338 338 337 336 332 335 339 330 322 319 316 319 319 318 319 319 323 326 327 326 322 318 314 310 307 307 307 308 312 320 323 323 326 329 331 332 334 334 333 334 334 335 335 335 336 336 336 336 337 337 336 336 336 335 335 335 335 334 333 333 333 333 332 332 333 333 332 331 330 330 331 331 332 335 336 333 331 330 332
339 338 337 337 337 337 336 334 329 323 318 319 323 317 313 317 319 321 319 316 317 316 314 315 313 313 312 310 308 306 306 305 305 305 306 308 310 313 320 324 324 326 329 331 333 333 333 333 334 333 334 334 335 336 336 336 336 336 336 335 335 335 334 334 334 333 332 332 333 333 333 334 333 332 331 330 330 331 332 333 334 332 329 330 332
338 337 336 336 336 334 330 324 316 312 311 311 312 311 312 315 316 317 313 312 313 311 309 309 309 309 308 307 307 307 307 306 306 306 305 305 304 306 310 313 314 314 317 322 327 330 332 333 332 332 333 334 335 336 336 336 335 336 336 335 335 334 334 334 334 334 333 333 332 332 332 333 333 333 331 331 330 331 331 331 332 331 329 331 333
336 335 335 332 329 323 316 312 310 310 311 311 311 311 311 311 311 311 310 310 311 309 309 310 311 310 308 308 308 307 307 307 307 306 306 306 305 305 304 305 305 305 307 310 314 320 326 329 330 331 332 333 333 335 335 335 335 335 336 336 336 335 334 334 334 335 334 334 333 332 332 331 332 332 333 333 332 331 331 331 332 331 330 332 332
332 330 327 321 315 312 309 309 310 311 311 312 312 311 311 310 311 311 310 310 309 309 310 313 313 310 308 307 307 307 307 307 307 307 307 307 306 306 306 305 305 304 304 304 305 308 313 318 323 327 330 331 332 333 333 333 334 335 336 335 335 335 335 334 335 335 334 334 334 333 332 332 331 330 331 333 333 332 331 332 333 332 331 331 331
325 320 314 311 309 309 310 311 310 311 312 312 311 311 310 310 310 310 310 310 310 309 309 311 310 308 308 308 307 306 307 307 307 307 306 307 306 307 307 306 306 306 305 304 304 304 305 307 311 315 319 324 328 330 331 332 333 333 334 335 335 335 335 335 334 334 334 334 334 333 333 333 333 331 329 330 332 333 332 332 332 332 331 332 332
315 310 309 309 310 310 310 311 311 312 312 311 311 311 310 310 310 310 309 309 309 307 307 308 308 307 308 307 306 306 307 307 307 307 307 307 307 307 307 307 307 307 307 306 305 304 304 304 305 305 307 310 315 319 324 329 332 332 332 333 334 334 334 335 334 334 335 335 334 334 333 333 333 332 330 330 331 332 332 332 331 331 331 332 332
Wind_Speed
7 7 10 8 7 11 12 13 13 13 13 12 12 11 11 9 9 8 8 8 8 9 8 8 8 8 8 9 9 9 8 7 6 5 5 4 4 4 5 5 6 7 7 6 4 4 7 7 6 6 6 5 6 7 7 6 5 5 3 1 1 2 2 2 2 2 1 2 3 5 6 6 9 10 11 7 2 4 6 6 6 3 1 1 3
10 9 11 10 9 12 13 14 14 14 13 12 12 11 11 9 9 8 8 8 8 8 8 8 8 8 8 9 9 9 8 7 6 5 5 4 4 5 5 6 7 7 7 6 4 4 7 7 6 6 6 7 8 9 8 7 5 4 3 2 2 3 4 5 6 7 8 9 9 8 6 7 11 12 13 8 3 5 4 5 6 2 0 2 3
11 10 11 12 12 14 14 14 13 13 12 12 11 11 10 9 9 8 8 7 7 7 7 8 8 8 8 9 8 8 7 7 6 5 5 5 5 5 6 7 7 8 8 6 5 5 6 6 5 5 6 7 9 9 8 6 4 4 4 4 5 7 10 12 14 15 13 12 10 8 7 7 13 13 13 9 3 4 4 4 3 1 2 4 4
11 11 12 13 14 14 13 13 12 12 12 11 10 10 10 9 8 8 7 7 7 6 7 7 8 8 8 8 8 8 7 6 6 5 5 5 5 5 6 7 8 8 8 6 6 6 6 6 5 5 6 8 8 7 6 5 5 5 5 6 8 10 14 17 18 17 15 13 10 8 6 7 13 11 13 10 4 3 3 2 1 3 4 6 5
11 12 12 14 15 13 13 13 12 12 11 11 10 9 9 8 8 7 7 6 6 6 7 7 7 7 7 8 8 7 6 6 6 5 6 6 5 6 7 7 7 7 7 6 6 6 6 5 4 5 7 8 7 6 5 5 6 6 6 7 9 11 15 17 17 16 15 14 11 9 6 10 11 10 13 9 4 3 3 1 2 4 4 3 1
12 13 12 13 15 13 13 12 12 12 11 10 9 9 8 8 7 6 6 6 6 6 7 7 7 7 7 8 7 7 6 6 6 6 6 6 6 6 6 6 5 5 6 6 5 5 5 4 4 5 7 7 7 5 5 6 6 6 7 7 9 12 15 17 17 16 13 12 11 10 5 11 11 9 13 9 6 4 4 5 2 3 4 3 4
12 13 12 13 14 13 12 11 11 11 10 10 9 9 8 8 7 6 6 6 6 6 6 6 7 7 7 7 7 7 6 6 6 6 6 6 6 5 6 5 5 4 5 5 4 4 4 4 4 5 7 7 6 4 5 6 7 7 7 7 10 13 15 16 16 15 11 10 9 10 5 10 12 8 11 11 8 6 6 6 5 6 7 5 4
13 13 12 14 15 13 12 11 11 11 11 10 9 9 8 8 7 6 6 6 6 6 6 6 7 7 7 7 6 6 6 7 6 6 5 6 6 6 6 6 6 5 5 5 4 3 2 3 4 6 8 7 6 4 6 7 7 7 7 7 11 14 15 16 16 15 12 8 5 7 6 8 12 8 9 11 11 8 7 5 4 4 5 5 4
12 12 11 13 14 13 13 12 11 11 10 10 8 8 7 7 6 6 6 6 6 6 6 6 6 7 7 7 6 6 7 7 6 5 5 6 7 7 7 7 6 5 5 4 3 2 2 3 5 8 8 6 5 6 7 7 8 7 7 7 10 13 14 15 14 14 12 10 6 4 4 9 12 7 7 11 11 9 9 4 4 3 3 4 3
11 11 10 11 12 12 12 11 11 10 9 8 7 7 6 5 5 5 5 5 6 6 6 6 7 7 7 6 6 6 6 6 6 5 5 6 9 9 7 6 5 4 3 2 2 2 3 5 7 9 8 6 6 6 7 7 7 7 7 7 9 12 12 11 10 9 8 10 7 5 5 9 12 7 7 11 11 9 9 6 2 2 2 3 6
13 12 10 11 12 11 10 10 10 9 8 7 6 6 5 4 4 5 5 5 5 6 6 6 7 7 6 6 5 5 6 6 5 5 4 6 9 8 7 5 4 3 3 3 3 4 5 7 9 8 7 6 6 7 7 7 7 7 7 7 8 11 10 8 7 6 5 5 4 4 3 9 12 8 9 11 11 9 8 7 4 4 4 6 7
13 11 10 12 12 10 10 9 8 8 7 6 6 6 5 5 5 5 5 5 5 6 6 7 6 6 6 5 5 5 5 6 6 5 4 4 7 7 6 5 4 3 3 4 5 7 8 9 9 7 6 6 7 7 7 7 8 8 6 5 6 5 4 3 3 4 6 5 3 2 4 9 9 9 10 11 11 8 6 7 5 5 5 5 5
12 11 11 13 12 11 10 9 9 8 7 7 6 6 6 5 5 5 5 5 5 6 6 7 6 6 6 5 4 4 5 6 6 5 4 3 4 5 5 4 4 3 3 4 6 7 8 8 7 6 5 6 7 7 8 8 8 7 6 4 3 1 1 1 2 3 6 5 2 3 7 9 9 10 11 11 9 6 6 6 5 5 3 3 3
12 12 12 13 12 11 10 9 9 8 8 7 7 6 6 6 5 5 5 5 5 6 6 6 6 6 5 5 4 4 5 6 6 5 3 2 3 4 4 4 3 3 3 4 6 6 6 5 5 4 4 5 6 7 8 8 7 7 6 3 1 1 1 0 1 3 5 3 0 3 8 9 9 10 9 9 6 5 6 6 5 4 2 3 4
12 12 13 13 12 11 10 9 9 8 8 7 7 6 6 5 5 5 5 5 5 5 6 6 6 5 5 4 4 4 4 5 6 6 5 2 2 3 4 3 3 3 4 4 5 4 4 3 3 3 4 4 4 5 7 7 7 6 5 3 1 1 2 3 3 1 1 2 1 2 8 10 8 9 8 6 5 5 6 6 4 3 2 3 3
12 12 13 13 12 12 11 9 8 8 8 7 7 6 6 5 5 5 5 5 5 5 5 6 5 5 4 4 4 3 3 5 6 7 6 2 2 3 4 3 3 3 3 3 4 3 3 3 2 2 3 3 4 4 5 5 5 6 5 4 2 1 2 4 4 1 2 3 1 3 9 10 8 9 8 6 5 5 6 5 2 1 1 3 2
12 13 13 13 12 12 11 10 9 8 8 7 7 6 5 5 5 5 5 5 4 5 5 5 5 4 4 3 3 3 2 4 5 6 6 4 1 3 4 4 3 2 2 2 2 2 2 3 2 2 2 2 3 3 4 4 4 5 4 5 3 2 2 5 4 3 3 2 1 6 8 8 8 7 6 5 5 5 5 4 1 1 2 3 2
11 13 13 12 12 11 10 9 9 8 8 8 7 6 5 5 5 4 4 4 4 4 4 4 4 4 3 2 2 2 2 3 4 5 6 5 2 2 3 4 4 3 3 3 3 3 2 3 3 3 3 3 3 3 3 3 4 4 4 6 4 4 3 5 4 4 4 3 2 6 6 6 7 5 5 4 4 4 3 1 1 2 3 3 2
12 12 11 12 11 10 10 9 8 8 7 7 6 6 5 4 4 4 4 4 3 4 4 4 4 4 3 2 2 2 2 2 3 4 5 5 3 2 2 3 4 5 5 5 5 5 4 4 4 5 4 4 4 4 4 4 4 4 5 6 5 6 4 4 3 5 4 6 5 6 6 5 5 4 4 3 4 3 1 2 2 2 3 3 3
14 13 12 11 10 9 9 8 7 7 7 6 5 5 5 4 3 3 3 3 3 3 4 4 4 4 3 3 3 2 2 1 1 2 3 4 4 3 1 2 3 4 5 7 7 7 7 6 6 5 5 5 5 5 5 5 5 5 5 6 7 6 4 3 6 6 6 7 6 6 5 4 4 4 3 3 4 3 1 2 2 2 3 3 4
14 15 14 13 10 8 8 8 8 8 7 6 5 4 4 4 3 3 3 3 2 2 2 3 3 4 3 3 3 2 1 1 1 1 1 2 2 3 3 1 1 2 4 5 6 7 8 8 7 7 6 5 5 5 5 6 6 6 6 6 8 6 4 3 6 8 8 7 7 6 4 4 3 4 3 2 2 2 1 2 2 2 2 3 4
15 15 14 14 12 10 8 8 9 8 7 6 4 4 4 4 3 3 3 3 2 1 1 2 2 3 3 2 1 0 0 0 1 1 1 1 1 2 3 2 1 1 2 3 3 4 5 6 7 8 7 7 7 6 7 7 6 6 7 8 8 6 3 2 5 9 10 9 8 5 4 4 4 4 3 2 1 1 1 2 1 2 3 3 3
17 15 14 13 13 12 9 8 10 9 7 6 4 4 5 4 4 4 3 3 2 2 1 1 1 1 1 0 0 1 1 1 2 2 3 3 2 3 3 2 1 1 1 1 1 2 3 3 4 5 6 7 7 8 8 5 4 5 5 7 8 6 2 2 7 10 11 12 10 6 5 5 5 5 3 2 1 1 1 1 1 2 3 3 3
17 16 15 13 12 13 13 10 10 10 7 6 5 5 5 4 4 4 4 3 3 3 2 2 2 1 2 2 2 2 2 2 2 2 4 4 3 4 4 3 2 1 1 1 1 3 4 3 2 2 2 5 6 6 5 2 7 12 9 8 9 7 3 4 8 10 12 14 10 7 7 6 6 5 4 3 2 2 0 1 0 2 2 3 3
17 16 16 16 13 13 15 12 9 8 7 6 5 5 5 4 4 4 4 3 3 3 3 3 2 2 4 3 3 4 4 3 3 4 4 5 4 4 4 4 4 3 3 3 4 4 5 6 3 1 3 6 5 2 1 2 8 14 12 10 8 7 6 7 9 11 14 15 11 9 10 9 8 7 5 4 4 3 1 1 1 1 2 3 4
17 15 16 17 16 14 14 15 12 9 7 6 5 5 6 5 4 5 4 3 4 4 4 3 3 5 6 5 5 5 4 5 5 5 4 5 5 4 4 5 6 5 5 5 6 6 7 7 4 1 4 8 5 3 3 6 7 9 12 10 8 8 9 10 9 12 15 15 13 11 10 9 8 8 7 6 5 4 2 1 1 1 2 3 3
17 15 16 16 16 16 15 15 14 10 10 9 6 5 7 6 4 5 5 4 4 4 5 4 5 6 6 7 7 6 5 5 6 5 5 6 6 5 5 6 7 7 7 7 7 7 7 6 4 5 6 7 6 5 7 10 8 6 8 9 10 12 12 11 10 12 14 15 14 12 11 10 9 9 8 7 6 4 4 2 1 2 2 2 2
17 16 17 15 15 16 15 15 14 12 12 12 9 6 6 7 6 6 6 5 4 5 5 6 7 7 6 7 7 6 5 5 6 6 5 6 7 6 5 6 7 7 7 8 8 9 9 7 5 7 9 9 9 9 9 10 10 9 9 10 12 13 13 12 12 13 14 15 14 14 13 11 10 10 8 8 7 6 4 3 2 3 3 2 3
17 17 17 16 16 16 14 14 14 13 13 13 12 9 8 8 7 7 6 6 7 6 7 7 7 6 6 7 7 6 6 5 6 6 5 6 7 6 6 6 7 8 7 8 8 9 10 9 8 8 10 12 13 12 11 11 10 9 12 11 10 11 13 14 14 15 16 16 15 15 15 13 11 10 9 8 8 8 6 4 4 4 3 3 4
18 17 16 15 16 17 15 14 14 13 13 13 13 13 11 9 8 8 7 7 8 8 7 7 7 6 6 7 6 6 6 7 8 6 6 7 7 7 7 7 8 9 9 9 9 8 9 9 10 11 12 13 13 12 13 14 12 10 10 10 10 11 13 15 16 16 17 17 16 15 15 14 13 11 10 9 9 9 8 5 5 5 4 3 4
19 17 15 15 16 17 16 14 13 13 13 13 14 13 12 10 9 9 7 7 8 8 8 7 7 6 6 6 6 6 7 8 8 7 8 8 8 8 8 8 8 9 10 11 10 9 10 11 12 12 13 13 14 14 14 15 13 11 11 11 10 12 14 15 15 16 17 17 16 15 16 14 14 13 12 11 11 10 9 8 6 5 5 5 5
17 14 14 14 15 17 16 15 13 13 13 13 13 12 12 12 11 10 8 8 8 7 7 6 6 6 7 7 6 6 6 8 8 7 8 9 9 8 9 9 9 10 10 11 12 11 11 13 14 13 13 14 15 16 16 16 14 12 13 13 12 11 13 14 15 18 19 18 16 15 18 17 15 16 14 12 12 11 10 9 8 6 6 7 6
13 13 15 15 14 15 15 15 14 13 12 12 12 11 12 12 10 10 9 8 7 6 6 5 5 6 7 7 7 6 6 8 8 7 7 9 8 8 9 10 11 12 11 12 14 13 13 15 15 15 15 15 16 16 17 17 16 15 15 15 14 12 13 14 14 16 18 20 17 15 18 20 18 16 16 14 13 13 12 11 10 8 7 8 6
13 13 14 13 15 15 14 16 15 13 13 12 12 12 12 12 10 11 11 9 8 6 6 6 6 6 5 6 7 6 6 7 8 8 8 8 8 8 9 10 11 11 12 13 15 14 15 15 16 17 17 17 18 18 18 18 18 17 16 16 17 16 15 16 15 14 16 18 19 18 19 21 20 17 16 16 15 14 13 12 11 10 9 8 7
14 13 12 13 15 15 15 16 16 14 15 14 13 13 13 12 11 12 11 10 9 8 7 7 7 6 6 7 7 7 7 7 7 8 8 9 9 8 9 9 9 10 11 13 14 15 15 16 16 17 17 18 18 19 20 19 18 18 18 18 19 19 18 17 17 17 15 16 19 18 16 18 20 17 16 17 16 15 14 14 13 11 10 9 8
14 12 13 15 14 15 15 15 15 14 15 16 15 14 15 13 12 12 11 10 9 9 8 8 8 7 7 8 8 8 8 7 8 8 9 10 9 8 9 10 10 10 12 13 14 15 16 16 16 16 17 17 18 20 20 19 18 17 18 19 20 20 20 19 18 17 15 17 19 17 15 18 19 17 17 17 17 16 15 14 14 13 12 11 10
13 12 12 14 14 15 15 14 15 13 13 15 14 15 16 15 13 12 11 9 9 8 9 9 9 8 8 8 8 9 9 8 9 9 10 11 11 10 11 12 11 11 12 13 14 14 15 16 16 16 17 17 18 20 20 18 18 18 18 19 20 20 21 21 21 19 17 17 18 18 19 19 20 20 20 20 19 17 15 15 14 14 13 12 11
12 11 11 12 12 13 13 14 15 12 11 12 12 13 15 15 14 13 12 11 11 11 10 9 8 8 8 8 8 9 10 9 10 11 12 12 12 12 12 13 12 12 13 13 14 14 15 16 16 16 16 17 19 20 20 19 18 19 20 20 20 20 21 22 22 23 22 21 17 17 21 21 21 21 21 22 21 19 18 16 15 15 14 13 12
11 11 11 10 9 11 12 14 14 12 11 11 11 11 12 13 12 10 8 8 8 7 6 5 4 5 6 7 8 8 9 10 10 11 12 12 12 13 13 14 14 14 15 15 15 15 15 15 16 16 16 18 21 22 20 20 21 21 21 21 21 21 22 22 23 23 24 24 22 19 19 20 19 21 22 23 22 21 20 18 16 16 15 14 14
11 11 11 10 10 11 12 14 13 11 10 9 9 8 7 8 7 6 5 3 2 1 1 2 3 4 5 7 8 8 9 9 9 10 12 13 13 14 15 15 15 15 16 17 16 15 15 15 16 18 18 19 23 23 20 19 21 21 21 21 21 22 23 24 25 25 24 24 24 23 20 20 22 23 23 22 22 22 22 20 17 17 17 15 14
12 12 12 10 11 11 12 13 12 12 10 9 9 8 6 5 5 5 5 5 2 2 2 2 4 5 7 8 9 9 10 9 9 9 10 11 12 14 15 15 16 17 17 16 16 17 18 17 18 19 18 19 22 20 17 17 19 20 20 21 22 22 23 24 25 26 25 23 24 24 21 21 24 23 22 22 23 23 23 21 19 18 18 17 16
11 12 12 11 12 11 12 14 13 12 11 10 9 9 9 8 7 7 6 7 7 5 5 6 7 8 9 8 8 10 10 11 11 11 11 11 11 13 14 15 16 17 17 16 17 18 20 20 20 21 20 20 20 17 16 16 18 19 19 21 23 22 21 23 25 26 27 25 25 25 23 23 24 22 21 22 23 25 24 23 21 20 19 18 18
12 14 14 13 14 13 14 14 13 12 11 11 14 17 17 14 12 13 11 11 11 10 9 9 8 8 9 8 9 11 11 11 12 12 13 13 13 13 14 15 16 17 17 18 18 19 20 21 21 21 21 21 20 17 16 17 18 17 17 19 21 21 20 20 21 23 24 24 25 26 26 26 26 24 23 23 24 26 25 24 23 21 21 20 19
13 15 15 14 15 15 16 15 15 17 16 17 20 19 18 15 13 14 12 9 7 7 6 5 4 5 8 9 10 11 12 12 12 12 12 12 13 14 14 15 15 16 17 18 19 19 20 20 20 20 21 21 21 19 17 17 17 15 15 15 15 16 17 17 18 20 20 21 23 25 26 27 27 26 27 26 25 25 25 24 24 23 22 22 20
14 16 16 15 16 16 17 17 18 19 18 18 21 19 16 14 11 11 8 5 4 4 3 4 5 7 9 10 11 12 12 12 13 12 11 11 13 14 14 14 14 14 15 17 17 17 18 18 19 19 20 22 22 21 19 18 19 18 17 16 14 12 13 15 17 18 18 17 20 22 24 26 27 26 27 29 27 26 24 23 24 24 22 22 21
17 18 17 16 17 17 17 17 17 17 16 17 19 17 14 12 9 7 5 4 4 4 4 6 7 9 9 10 11 12 12 12 12 12 12 12 14 14 14 15 16 15 15 16 17 17 17 18 19 19 20 21 23 24 22 21 22 22 21 21 20 18 18 18 18 19 20 19 18 20 22 24 25 24 26 30 29 26 24 24 26 26 24 22 22
19 19 19 19 19 19 19 18 17 16 16 15 15 13 11 10 9 7 5 5 5 5 5 7 8 9 10 11 12 13 14 14 14 15 14 13 13 14 16 17 19 20 19 18 18 18 18 18 19 20 21 21 22 24 24 23 23 22 22 23 23 24 24 24 22 21 22 22 20 19 19 21 22 23 26 30 30 27 25 24 26 26 25 23 23
21 21 22 22 21 21 20 19 17 16 15 13 12 10 9 8 7 5 4 4 4 5 6 8 9 10 11 13 14 15 16 17 18 20 19 17 16 16 17 17 18 20 21 21 21 20 19 19 19 20 21 21 21 23 24 24 23 23 22 20 21 23 24 25 24 22 22 25 26 23 21 21 21 23 27 27 24 25 26 25 25 26 27 25 23
23 23 24 23 23 21 20 18 16 14 12 11 9 8 7 6 4 3 2 2 4 5 5 8 11 12 13 13 15 16 18 19 20 22 23 23 23 22 20 20 18 18 19 21 23 23 23 23 21 21 22 22 22 23 25 25 24 24 23 21 22 23 24 24 22 22 25 28 29 27 25 24 23 24 26 25 21 21 23 25 25 27 29 27 24
24 24 24 23 22 20 18 16 14 12 10 9 8 6 5 4 3 2 2 3 5 6 6 8 11 12 13 14 15 18 19 20 22 23 24 25 26 26 26 25 23 22 20 19 21 22 24 25 25 25 25 25 24 23 25 25 25 25 24 24 25 24 24 25 23 23 25 27 27 27 27 26 26 26 24 25 25 23 24 26 26 27 30 28 26
24 24 23 21 20 18 16 14 12 11 9 7 7 5 4 3 1 2 3 4 6 8 8 8 10 11 13 14 16 19 20 22 23 25 26 27 27 28 28 29 28 26 24 22 21 22 22 24 26 27 27 27 27 26 25 25 25 26 25 25 27 26 26 26 25 24 24 25 26 28 28 27 27 28 26 24 25 26 28 28 27 28 30 30 29
Wind_Direction
142 145 165 173 165 153 145 138 139 134 130 126 123 120 116 111 106 104 101 97 91 87 81 77 71 66 63 62 63 67 74 80 88 94 99 104 108 115 118 128 130 135 141 143 152 128 128 121 108 110 112 122 135 135 131 130 123 116 104 73 343 327 333 350 353 354 47 89 82 71 60 48 34 25 15 11 42 107 119 101 93 95 88 297 340
157 157 159 161 154 152 147 144 144 135 131 126 125 122 117 111 107 104 98 94 87 82 76 73 67 64 61 61 64 67 74 82 90 97 103 112 120 132 134 136 138 146 148 151 156 129 130 124 108 105 111 123 130 131 130 130 124 112 90 77 59 49 54 63 68 76 94 94 89 78 73 57 30 19 18 27 104 128 126 110 119 126 330 286 307
167 157 154 160 156 158 153 146 143 133 130 127 128 123 119 115 110 106 100 94 85 78 71 67 62 62 60 61 64 66 74 82 91 98 106 116 126 139 140 142 143 150 155 158 152 130 127 121 112 111 118 126 130 130 129 124 108 95 86 80 71 68 73 80 83 81 83 83 83 80 94 56 18 14 21 34 102 129 123 129 146 82 11 305 306
170 153 152 158 158 161 154 145 140 134 132 129 130 123 121 117 113 109 102 95 85 76 67 62 60 59 59 61 63 66 72 79 87 95 107 116 126 141 143 145 147 156 160 154 141 128 125 121 115 113 122 131 133 127 124 110 95 94 86 81 77 77 80 86 86 81 76 71 68 70 84 32 12 12 19 31 70 107 112 136 217 314 317 307 308
167 159 159 159 158 160 153 146 140 137 136 133 131 125 122 117 111 106 99 92 81 72 67 63 62 58 57 60 64 69 74 80 86 94 105 115 127 141 144 147 151 161 160 144 130 125 123 123 114 113 124 135 141 127 115 102 101 95 88 88 85 84 84 89 88 85 81 74 66 61 48 3 5 10 13 28 39 63 77 14 287 287 283 296 335
167 162 162 162 158 157 151 144 141 137 135 133 129 124 121 116 113 107 102 92 82 75 72 69 64 58 56 58 64 72 78 84 91 99 108 118 124 135 142 147 149 157 154 138 123 121 123 121 114 123 136 145 146 124 109 108 109 102 97 96 94 92 90 94 93 89 85 82 74 67 40 343 353 4 4 21 16 4 9 358 21 57 64 88 100
166 160 161 164 158 155 151 146 140 136 135 136 134 132 131 126 124 117 109 97 88 80 75 70 63 57 54 56 63 74 81 87 96 104 117 122 116 124 134 138 135 137 137 128 121 123 121 122 125 135 149 152 144 117 112 117 117 111 103 101 100 98 98 100 96 91 83 87 87 82 87 321 336 350 352 9 6 347 343 359 46 53 53 80 103
161 157 157 161 159 156 152 149 143 142 144 143 144 141 138 132 129 120 109 97 87 80 74 66 61 56 53 55 59 67 72 79 93 107 120 118 112 119 120 122 127 129 130 129 129 133 122 125 132 138 150 150 140 119 119 124 124 115 105 106 102 101 103 103 98 93 84 81 96 96 120 283 314 337 342 358 358 349 332 349 59 42 42 72 98
151 147 150 158 155 152 152 152 148 149 149 146 146 140 137 132 126 117 104 94 87 80 75 68 62 55 52 54 56 60 58 62 73 91 104 103 105 110 110 117 131 134 139 140 130 134 138 134 132 136 143 143 135 126 125 130 128 119 114 112 106 109 108 110 107 99 97 81 81 120 152 265 296 318 325 345 348 350 338 344 90 76 59 54 32
139 144 149 156 148 146 148 150 151 149 149 146 144 138 134 129 118 107 97 89 84 79 74 68 60 56 56 57 58 61 52 53 55 65 88 99 102 104 105 112 119 125 133 133 125 132 145 138 132 135 140 137 132 130 131 135 133 130 128 118 111 116 112 113 107 98 104 85 94 170 185 256 283 298 309 329 337 348 343 338 40 25 10 351 331
138 150 150 155 150 143 142 143 147 147 149 147 144 141 135 127 114 102 98 92 85 80 76 70 63 62 65 66 66 62 51 50 53 61 83 107 111 108 105 108 104 109 114 119 135 133 138 137 133 135 138 135 134 135 136 140 143 143 141 131 125 125 120 113 97 80 58 63 145 200 197 247 272 283 291 309 321 339 344 332 333 323 318 315 309
136 150 151 155 154 146 143 140 139 141 143 141 138 137 133 125 113 107 100 91 84 78 75 70 69 73 74 77 78 66 52 47 50 61 78 110 122 114 109 113 105 101 102 118 132 130 136 136 135 139 138 139 141 140 140 144 151 155 156 148 146 148 156 145 103 76 49 58 176 212 219 241 275 275 278 298 307 326 347 332 316 314 310 293 283
135 149 153 154 153 148 146 141 137 137 136 134 131 128 125 118 110 108 100 89 81 74 70 68 70 75 76 78 86 73 54 46 42 50 66 100 119 118 115 111 101 91 93 122 134 134 140 139 140 144 141 146 147 147 147 150 157 164 169 161 160 162 237 196 109 92 78 82 155 191 229 253 292 281 278 291 298 322 342 332 304 299 288 237 224
135 148 153 154 151 147 144 138 135 134 134 131 129 127 118 111 104 101 100 95 85 78 73 72 75 77 75 77 95 88 63 52 43 42 50 87 119 127 126 110 99 91 95 126 137 137 143 143 151 151 145 153 155 153 152 158 164 168 178 182 182 16 355 292 96 79 66 33 209 178 243 270 288 286 291 291 300 329 330 328 301 282 204 179 183
138 145 151 153 151 147 143 137 133 131 131 129 126 124 117 108 99 99 99 95 85 81 78 77 80 79 77 79 101 104 74 55 44 38 37 54 154 151 142 122 107 103 106 132 144 143 145 154 172 169 155 160 168 162 159 165 169 174 187 203 221 332 340 326 317 13 59 311 327 186 243 264 280 293 306 305 317 329 322 320 296 273 179 155 157
141 143 147 150 153 151 146 141 136 133 130 128 127 123 119 111 101 100 94 87 79 77 77 76 77 77 75 80 106 114 79 53 45 40 39 55 179 184 169 152 127 118 122 138 157 161 160 175 193 185 172 175 188 177 172 173 178 184 197 222 232 286 330 342 332 13 128 133 76 240 237 254 282 301 310 316 323 325 322 314 281 245 203 157 156
139 140 145 148 155 154 149 144 139 137 134 134 135 131 124 118 109 103 94 84 79 76 74 74 70 70 78 88 113 120 84 55 48 45 43 56 135 190 196 187 170 160 160 166 184 192 183 200 220 207 200 208 213 204 198 191 199 202 209 230 239 268 315 348 343 47 37 56 104 247 239 251 279 305 314 318 325 326 315 301 238 176 183 158 171
131 135 139 144 151 152 149 145 143 142 142 143 142 141 133 122 112 106 101 90 87 85 75 72 63 58 68 89 120 120 83 52 40 41 44 55 88 174 205 209 207 217 215 213 213 221 223 226 232 235 245 243 240 245 240 229 228 227 225 235 251 265 310 345 336 55 8 321 222 249 255 256 278 306 313 323 343 335 308 267 172 173 164 153 162
132 134 134 142 145 147 151 148 149 146 145 147 143 142 133 123 116 107 105 99 93 87 79 72 60 49 50 68 109 112 85 56 32 31 40 52 67 111 204 218 226 234 233 236 238 241 245 245 245 245 251 247 243 256 261 254 250 251 243 243 255 270 308 349 7 40 327 285 246 250 269 272 282 303 313 346 8 357 284 173 177 186 159 150 145
141 139 136 147 146 144 148 150 153 147 145 146 143 143 134 129 127 118 110 102 91 82 80 78 66 57 70 91 105 113 108 73 21 15 34 44 53 63 119 218 239 248 246 247 253 259 259 258 257 254 256 254 250 259 262 258 263 261 256 251 256 274 291 331 11 358 292 277 264 253 269 281 288 300 315 6 21 20 157 172 186 185 155 159 157
144 142 146 159 160 150 145 151 154 149 149 150 149 147 147 150 151 143 128 114 103 89 83 87 81 72 87 108 113 121 117 63 358 334 353 20 36 46 59 70 266 261 263 260 266 274 275 270 264 264 266 264 265 267 261 263 274 272 269 257 253 273 278 306 350 317 281 279 269 260 279 293 300 301 311 7 28 28 107 158 183 198 175 177 170
145 146 158 162 159 158 150 152 154 153 153 154 155 150 164 172 174 169 158 158 145 128 122 117 102 85 90 113 121 120 83 345 328 314 294 321 343 359 30 38 26 332 283 276 285 289 289 285 272 269 270 273 273 269 269 268 270 276 280 267 253 265 276 316 319 291 280 283 277 275 288 299 309 308 313 336 10 23 54 113 170 213 202 199 180
150 152 165 160 154 160 158 164 164 163 162 162 159 156 176 182 187 187 186 194 187 188 179 187 179 103 105 176 325 319 302 281 301 289 289 308 310 309 329 357 358 6 338 292 315 338 333 320 285 264 255 261 268 270 276 278 309 323 306 286 268 252 252 312 293 285 278 278 279 282 290 294 298 307 315 317 287 260 48 87 157 208 210 209 188
153 159 164 155 157 165 163 176 177 169 171 172 161 161 181 180 183 184 187 210 207 211 210 207 222 241 250 285 317 300 282 286 278 248 269 292 292 289 297 313 307 303 355 324 317 344 340 333 299 251 266 274 270 276 275 277 323 323 323 315 282 250 263 295 279 276 270 274 280 279 291 293 282 291 302 307 291 268 247 91 162 196 210 209 194
156 164 160 153 166 174 167 172 176 175 177 177 173 171 181 176 181 182 179 202 205 212 219 211 226 232 237 273 299 286 294 297 281 265 265 279 290 289 288 296 293 284 307 313 307 316 316 316 307 136 13 334 293 301 1 275 291 295 301 314 293 263 273 274 266 270 269 276 283 279 286 286 275 277 283 294 294 284 266 165 207 191 214 210 194
157 162 156 158 174 176 167 168 171 180 176 177 193 185 185 182 182 186 179 192 202 218 228 220 227 226 232 252 261 272 292 285 283 291 285 284 286 285 298 303 300 298 304 311 310 307 305 314 313 189 358 344 327 347 325 275 261 265 283 299 298 285 276 269 264 269 272 278 283 279 283 284 274 273 276 280 285 287 270 225 207 213 219 202 191
158 159 156 164 178 172 168 170 171 176 171 177 201 196 186 182 184 193 188 189 198 227 237 230 236 228 226 238 248 261 270 271 277 284 283 280 274 277 308 313 307 308 309 308 304 298 293 302 295 238 280 310 310 309 278 273 280 268 272 272 273 272 268 272 266 263 266 273 281 280 282 285 275 274 277 271 271 276 270 264 231 230 226 189 204
160 161 159 168 176 167 166 170 172 177 175 178 188 191 191 187 191 198 192 190 198 229 239 231 241 238 227 233 242 248 254 271 272 269 271 269 269 281 305 310 303 306 312 307 294 289 287 286 267 239 258 261 250 258 254 266 284 286 279 262 257 262 262 261 257 261 264 265 273 277 278 278 273 275 276 267 267 269 269 276 268 245 234 211 214
163 163 164 172 172 164 167 172 175 180 182 180 173 178 199 200 196 201 200 197 198 216 232 230 238 246 239 235 237 239 242 255 259 263 269 268 269 274 287 295 292 295 302 296 283 284 284 280 275 255 250 246 234 232 228 230 240 261 279 270 254 258 261 260 258 262 263 261 264 270 273 270 267 272 275 271 269 270 270 270 276 272 251 226 214
165 166 165 172 172 165 170 176 179 181 182 179 174 184 199 198 194 204 208 202 200 208 220 225 230 240 245 240 237 237 238 247 251 256 266 274 277 273 276 278 275 283 289 288 281 279 280 275 273 263 251 247 240 234 233 230 219 218 246 262 263 262 260 265 268 263 263 264 262 266 269 264 263 268 271 273 271 271 273 267 264 273 269 248 224
165 167 163 174 179 170 171 177 180 182 180 179 183 191 194 192 194 202 204 201 209 213 215 223 226 231 244 248 242 237 243 256 261 265 275 285 286 281 278 272 268 274 278 285 284 276 278 275 270 270 269 264 255 251 249 245 235 218 217 229 247 259 262 266 263 258 264 267 261 263 266 261 261 266 267 270 271 269 270 270 261 263 270 256 228
165 166 163 178 184 173 172 177 180 183 181 182 190 195 192 192 196 199 200 204 215 219 219 229 233 234 244 251 252 246 250 265 274 279 282 287 288 281 280 281 280 278 276 280 283 281 281 279 275 276 281 281 270 264 261 257 251 238 227 227 232 238 251 261 260 260 265 267 262 259 265 265 262 264 263 264 270 268 265 269 267 262 265 260 238
158 167 175 182 179 172 176 177 180 183 182 185 190 193 193 192 196 201 205 212 218 217 220 233 243 245 251 257 259 256 257 271 284 289 282 284 284 278 282 289 290 289 288 285 284 285 282 280 280 280 282 284 278 272 269 265 259 248 237 239 244 236 234 242 252 265 266 264 262 255 259 266 266 262 258 258 262 266 265 265 268 266 261 261 254
158 174 185 179 166 172 183 181 180 183 184 189 191 194 195 190 195 203 206 213 216 215 222 235 249 257 266 271 270 267 264 271 283 288 287 289 286 283 289 293 294 294 292 289 286 286 286 285 285 286 286 285 281 277 273 270 264 258 251 249 250 247 243 237 239 254 259 261 263 255 253 259 263 264 258 256 255 260 264 262 263 264 261 260 260
165 179 180 166 163 175 186 184 185 186 188 191 192 198 197 194 201 205 208 212 212 212 222 235 250 261 269 275 277 276 274 275 279 283 287 291 289 291 295 292 292 293 287 284 283 286 290 289 286 285 284 283 283 282 280 277 271 266 263 261 255 250 249 245 243 245 248 264 265 258 255 254 261 267 260 255 253 255 261 260 260 261 263 260 257
166 181 176 164 168 179 183 186 188 189 196 195 195 201 197 196 203 207 212 217 214 216 227 238 248 255 261 269 276 278 279 283 283 285 289 292 293 294 293 289 287 287 283 280 279 284 289 288 284 283 283 284 285 284 282 280 276 275 272 266 262 256 250 247 249 247 250 266 265 261 260 253 260 270 268 264 257 255 258 257 257 256 259 258 253
174 186 177 171 177 180 178 182 188 192 204 202 201 207 202 199 204 208 215 222 222 220 228 239 246 254 264 271 277 281 281 282 284 286 286 288 291 290 288 288 288 284 282 281 281 283 285 285 284 283 284 290 291 285 282 281 279 281 278 272 267 263 257 248 245 247 252 257 257 265 267 257 258 263 268 270 262 256 256 254 253 251 253 255 253
184 183 175 184 182 171 165 173 186 195 205 203 202 207 204 204 209 211 216 223 224 223 232 239 240 248 261 269 271 277 280 280 282 284 285 287 289 289 286 285 288 290 289 286 284 283 282 283 284 281 282 292 293 284 280 283 286 283 278 275 272 268 263 254 246 243 247 249 249 263 271 265 255 250 258 264 261 258 254 250 247 245 246 247 249
189 177 179 190 171 161 166 175 184 191 197 196 195 197 195 196 202 204 205 218 222 217 219 212 211 236 253 265 267 272 280 283 284 285 288 290 290 291 291 290 293 293 292 290 287 286 286 286 287 286 287 293 289 279 278 283 287 286 279 274 272 271 267 262 256 250 249 250 244 246 264 272 258 248 256 259 257 259 256 249 244 243 244 243 244
188 180 186 185 171 173 175 176 179 181 183 178 173 168 165 169 174 174 159 166 206 193 113 155 194 234 241 253 261 266 273 279 284 287 289 290 290 290 291 292 291 287 288 290 291 291 291 290 288 288 292 292 283 276 278 281 282 283 282 278 275 272 268 263 260 257 257 257 250 244 252 266 260 254 258 255 253 259 257 251 247 245 245 243 244
186 190 190 179 172 172 165 163 164 166 162 149 136 126 131 134 137 143 110 101 124 44 44 163 205 231 243 247 254 263 268 271 274 277 282 288 291 290 289 289 287 286 289 289 288 289 289 286 284 287 289 285 277 275 277 278 279 281 283 285 282 276 270 267 263 260 260 259 257 253 249 255 260 262 261 254 252 258 259 254 251 248 244 243 244
189 190 182 171 171 168 163 158 152 152 149 144 143 149 159 152 148 152 129 143 174 167 176 210 229 251 267 269 273 279 279 279 276 273 274 278 284 288 291 291 288 289 291 290 289 289 287 285 286 288 287 278 271 273 275 274 278 284 285 284 284 282 276 271 268 266 263 259 257 257 252 249 253 259 260 255 252 257 258 253 251 249 243 244 244
190 181 176 175 174 169 167 162 152 150 154 167 174 173 174 170 166 171 170 178 191 191 204 233 256 273 285 289 289 292 294 294 292 287 284 286 286 286 289 291 292 292 293 293 293 291 289 290 289 288 287 281 276 275 274 274 275 277 276 277 282 286 283 279 276 272 269 263 257 255 254 250 249 249 253 255 253 256 257 249 248 248 242 245 245
184 177 173 170 167 164 164 164 162 163 171 183 183 177 177 178 172 175 181 188 194 194 206 234 256 283 295 296 295 301 304 303 302 298 297 300 296 290 287 287 290 294 295 294 293 291 293 295 293 289 287 285 283 279 273 272 269 264 264 269 277 281 281 284 285 281 280 273 263 257 255 253 252 250 250 253 254 258 258 248 244 244 242 244 244
176 172 168 164 164 166 167 169 171 172 173 176 180 178 176 176 167 164 172 182 195 195 203 224 237 255 273 284 294 304 307 306 304 302 300 298 297 298 299 296 291 291 293 296 298 296 296 296 295 294 291 289 287 282 274 271 269 266 263 263 266 266 268 277 283 285 286 280 270 265 258 252 254 254 250 251 255 257 256 248 242 241 242 243 242
175 173 170 171 172 170 170 172 168 165 161 161 172 176 170 167 160 153 159 184 218 233 238 250 258 261 271 286 300 308 311 311 311 310 307 302 298 298 300 299 295 291 288 290 294 297 298 296 295 294 292 292 289 281 275 275 276 273 269 268 267 263 265 272 277 283 285 282 275 269 262 254 252 255 253 252 253 252 252 250 245 241 242 242 241
178 176 174 176 176 172 171 170 164 160 161 164 167 164 155 151 153 161 175 197 231 261 272 275 276 280 292 302 308 314 318 321 322 321 319 314 307 298 294 293 294 295 293 290 289 292 295 295 295 294 291 291 287 281 279 278 278 277 274 274 271 267 267 268 272 280 283 281 277 273 268 259 250 249 252 253 252 251 253 248 239 239 240 237 237
182 180 178 178 176 173 170 167 166 165 164 165 159 149 146 148 154 170 187 212 249 280 289 289 290 295 305 310 314 320 323 324 325 325 324 322 319 313 306 301 297 296 294 292 291 290 290 291 294 294 293 291 288 286 286 281 276 275 274 273 271 269 264 263 267 271 270 273 276 274 270 266 258 249 249 253 250 248 251 242 232 239 241 234 235
190 185 181 178 174 173 170 167 167 165 163 162 155 147 146 148 155 178 210 241 278 298 292 286 291 299 309 317 320 323 324 324 324 322 321 321 321 320 317 313 309 303 297 293 291 290 290 290 290 291 291 293 292 291 289 286 279 276 276 272 270 270 266 261 262 263 262 266 272 272 268 269 269 262 255 254 253 250 247 242 239 241 240 238 239
193 185 179 176 174 172 169 168 167 165 165 158 153 153 155 163 170 209 262 288 298 299 280 274 287 301 312 319 321 322 322 321 319 318 316 316 317 317 317 315 313 310 305 298 292 290 289 289 290 288 287 288 290 291 290 289 285 281 280 274 270 270 268 264 261 261 261 259 261 266 267 267 268 268 262 255 255 256 250 248 247 241 237 241 244
188 184 179 176 175 173 171 173 171 169 169 162 163 168 171 184 201 253 284 305 300 294 287 283 291 300 307 312 315 317 317 317 317 316 315 315 315 314 314 312 310 309 307 303 299 296 291 288 289 289 289 288 288 289 289 289 289 287 283 278 274 271 266 265 265 264 261 257 260 265 266 265 265 267 266 259 254 254 249 248 248 242 240 245 247